軌道要素
Epoch 2021 Jan. 26.0 TT = JDT 2459240.5
T 2021 Jan. 25.38535 TT Rudenko
q 0.5263791 (2000.0) P Q
n 0.21089592 Peri. 210.73315 -0.27666987 -0.87919219
a 2.7952711 Node 257.79036 +0.94248555 -0.16947613
e 0.8116894 Incl. 23.38380 +0.18754940 -0.44530769
P 4.67
From 154 observations 2016 May 11-2021 Jan. 19, mean residual 1".9.
|